User: anonymous   Login
Location: Bijele Vode
(45.2833°N, 16.2000°E)
Time: 22:24:35
(UTC+00:00)
Language:

Cosmos 2082 Rocket - Orbit

View from above orbital plane
View from above orbital plane
View from above satellite
View from above satellite

Ground track
Ground track

The orbit data is extracted from the following two-line orbital elements,

1 20625U 90046B   20336.87483496  .00000269  00000-0  16436-3 0  9997
2 20625  70.9997  16.7876 0014856 339.3456  20.7064 14.14658913576290
Epoch (UTC): 01 December 2020 20:59:45
Eccentricity: 0.0014856
inclination: 70.9997°
perigee height: 833 km
apogee height: 854 km
right ascension of ascending node: 16.7876°
argument of perigee: 339.3456°
revolutions per day: 14.14658913
mean anomaly at epoch: 20.7064°
orbit number at epoch: 57629

The dashed part of the orbit path shows where the satellite is in the earth's shadow,  

DLR